Location: Bodorgan Station
(53.2000°N, 4.4167°W)
Time: 21:56:22
(UTC+00:00)

Daily predictions for brighter satellites

Satellite Brightness Start Highest point End
(mag) Time Altitude Azimuth Time Altitude Azimuth Time Altitude Azimuth
Cosmos 1356 Rocket 3.6 18:40:03 10° SSW 18:44:20 84° WNW 18:48:41 10° NNE
Cosmos 1340 2.8 18:42:06 10° NNW 18:45:54 83° WSW 18:49:39 10° S
OBJECT-B 2.3 18:44:16 10° ESE 18:46:35 19° ENE 18:48:55 10° NNE
In-Cosmos 22 4.1 18:41:31 10° N 18:46:50 71° ENE 18:52:06 10° SSE
Cosmos 1733 Rocket 3.0 18:44:39 10° S 18:48:58 87° E 18:53:20 10° NNE
Cosmos 2154 Rocket 4.5 18:44:01 10° SSE 18:49:50 39° E 18:55:40 10° NNE
Cosmos 1184 Rocket 4.1 18:47:19 10° NNE 18:49:54 22° ENE 18:52:28 10° ESE
Cosmos 1503 Rocket 4.3 18:45:41 10° S 18:50:36 45° ESE 18:55:31 10° NE
USA 305 3.0 18:47:24 10° W 18:51:40 79° N 18:55:55 10° E
H-2A R/B 2.4 18:47:43 10° NNE 18:51:44 41° E 18:55:40 10° S
MetOp-A 4.4 18:47:17 10° SE 18:52:27 51° ENE 18:57:38 10° N
Meteor 2-9 Rocket 4.4 18:47:45 10° S 18:53:39 88° E 18:59:32 10° NNE
SL-08 RB Rocket 3.7 18:51:12 10° SSE 18:55:41 88° W 19:00:12 10° NNW
Cosmos 1782 Rocket 4.5 18:54:46 10° SE 18:58:30 27° E 19:02:14 10° NNE
IRAS Rocket 4.3 18:53:17 10° NNE 18:58:58 78° ESE 19:04:35 10° SSW
Nadezhda 3 Rocket 4.1 18:53:22 10° N 18:59:27 58° ENE 19:05:31 10° SSE
COSMOS 2455 3.5 18:55:44 10° NW 19:01:41 60° WSW 19:07:35 10° SSE
ISS -3.5 18:59:15 10° WSW 19:02:35 56° SSE 19:05:32 13° E
Cosmos 1346 Rocket 3.2 18:59:16 10° N 19:03:09 43° ENE 19:07:00 10° SE
USA 307 3.0 19:02:08 10° W 19:06:24 79° N 19:10:15 13° E
CSL-04 Rocket 3.7 19:01:42 10° SSE 19:06:59 61° ENE 19:12:23 10° N
Cosmos 1354 Rocket 4.1 19:02:08 10° S 19:07:12 51° ESE 19:12:17 10° NNE
Cosmos 1025 Rocket 3.9 19:06:18 10° N 19:10:09 30° ENE 19:13:46 11° SE
Cosmos 1486 Rocket 4.2 19:07:08 10° SSW 19:12:25 82° WNW 19:17:46 10° NNE
H-2A R/B 4.1 19:13:20 10° S 19:17:36 42° W 19:21:55 10° NNW
Okean-O 2.7 19:15:12 10° SSE 19:19:39 87° W 19:24:07 10° NNW
USA 306 2.9 19:15:25 10° W 19:19:40 81° N 19:22:58 17° E
Cosmos 1238 Rocket 3.7 19:14:37 10° S 19:20:49 72° E 19:26:10 10° NNE
Cosmos 1975 Rocket 3.2 19:17:53 10° N 19:22:16 56° ENE 19:26:39 10° SSE
Cosmos 2297 Rocket 3.9 19:20:51 10° NNW 19:24:53 19° NNE 19:28:41 11° ENE
USA 308 2.9 19:21:30 10° W 19:25:46 81° N 19:28:52 18° E
Cosmos 773 Rocket 4.3 19:21:18 10° NNW 19:26:33 72° WSW 19:31:48 10° SSE
SeaSat 1 2.5 19:22:15 11° SE 19:27:01 70° NE 19:31:57 10° NNW
Cosmos 2074 Rocket 4.1 19:22:09 10° S 19:28:25 87° W 19:34:46 10° N
ATLAS CENTAUR R/B 3.2 19:24:14 10° WNW 19:28:28 36° WSW 19:32:51 10° S
Cosmos 1300 Rocket 4.4 19:29:52 10° SSE 19:33:35 28° E 19:37:21 10° NNE
Meteor 1-24 Rocket 4.2 19:29:50 10° N 19:34:47 37° ENE 19:38:11 19° ESE
Resurs 01 Rocket 2.8 19:33:40 20° E 19:35:27 25° ENE 19:39:04 10° N
CZ-4B R/B 1.1 19:32:35 10° NNE 19:35:38 64° ESE 19:38:43 10° S
Lacrosse 5 rocket 3.0 19:31:50 10° WNW 19:35:56 33° SW 19:39:53 10° SSE
Cosmos 1441 Rocket 3.9 19:32:37 10° N 19:36:06 33° ENE 19:37:34 24° ESE
Cosmos 1943 Rocket 2.2 19:32:51 10° SSW 19:38:27 88° ESE 19:44:08 10° NNE
IGS 5A 4.5 19:37:05 22° E 19:38:40 28° ENE 19:42:14 10° N
SL-27 R/B 3.3 19:36:34 10° N 19:39:34 30° ENE 19:40:24 26° E
Cosmos 2341 Rocket 4.3 19:33:45 10° SSE 19:39:44 46° E 19:45:47 10° NNE
USA 186 1.5 19:39:12 16° SSE 19:41:30 80° ENE 19:44:40 10° N
USA 276 2.5 19:38:29 10° WSW 19:41:31 45° S 19:42:32 32° SE
Resurs 1-3 4.0 19:39:52 20° SE 19:42:33 44° ENE 19:46:44 10° N
CZ-2C R/B 3.7 19:37:40 10° N 19:42:58 50° WNW 19:48:21 10° SW
GENESIS II 4.4 19:39:23 10° SSW 19:43:04 47° SE 19:46:15 14° NE
Cosmos 1833 4.1 19:37:48 10° NNW 19:43:29 80° NE 19:47:57 17° SE
Cosmos 1908 Rocket 3.9 19:40:09 10° SSW 19:44:37 71° WNW 19:49:06 10° N
ERBS 3.2 19:43:58 10° WNW 19:47:07 42° N 19:48:55 21° NE
Cosmos 2227 Rocket 3.9 19:43:09 10° NNW 19:47:19 20° NNE 19:50:29 13° ENE
APEX 3.6 19:42:55 10° NNW 19:48:09 76° NE 19:50:35 25° SE
Cosmos 2278 Rocket 4.1 19:43:44 10° W 19:48:43 30° NW 19:53:43 10° NNE
DMSP B5D2-2 4.2 19:44:16 10° NNE 19:49:35 81° WNW 19:54:52 10° SSW
CZ-4 R/B 3.6 19:47:10 10° SSW 19:50:23 25° W 19:53:38 10° NW
Cosmos 2369 Rocket 2.2 19:45:15 10° SSW 19:50:47 59° ESE 19:56:21 10° NE
Cosmos 1315 Rocket 3.0 19:47:07 10° S 19:50:56 48° E 19:54:51 10° NNE
Cosmos 2218 Rocket 4.4 19:45:21 10° SSE 19:50:57 38° E 19:56:37 10° NNE
SL-14 R/B 3.2 19:50:39 10° N 19:54:39 74° ENE 19:57:12 21° SSE
Cosmos 1400 Rocket 3.7 19:53:01 10° SSW 19:57:00 52° WNW 20:00:59 10° N
SJ-6B 2.9 19:53:28 13° SSE 19:57:04 88° WSW 20:01:11 10° NNW
Cosmos 1674 4.0 19:53:52 10° NNW 19:57:23 40° W 20:00:52 10° SSW
USA 215 3.8 19:52:49 15° SSE 19:58:15 51° SW 20:04:39 10° WNW
MOS 1 4.3 19:54:16 18° SE 19:58:27 64° ENE 20:04:05 10° NNW
Ariane Rocket 3.1 19:56:38 24° SE 19:59:28 54° ENE 20:04:27 10° N
Cosmos 2297 4.2 19:55:00 10° SW 20:00:40 65° NW 20:06:24 10° NNE
Cosmos 1805 3.1 19:57:30 10° S 20:01:23 82° E 20:05:18 10° NNE
Cosmos 2263 Rocket 4.5 19:59:43 10° NNW 20:02:25 13° N 20:05:06 10° NE
IRS-1A Rocket 4.4 19:59:04 19° SE 20:03:15 67° ENE 20:09:09 10° NNW
SJ 16-02 1.3 20:01:25 10° S 20:05:48 65° ESE 20:10:13 10° NNE
EO 1 Delta rocket 4.1 20:02:47 21° SSE 20:06:07 70° ENE 20:11:56 10° N
CENTAUR R/B 4.2 20:09:38 16° ENE 20:09:38 16° ENE 20:11:32 10° ENE
Cosmos 1538 Rocket 4.4 20:02:51 10° NNW 20:08:11 66° WSW 20:12:38 15° S
Lacrosse 4 Rocket 4.1 20:08:44 10° WNW 20:11:19 16° NNW 20:13:56 10° NNE
Cosmos 962 Rocket 4.4 20:05:11 10° S 20:11:22 81° E 20:17:32 10° NNE
Cosmos 1626 3.4 20:10:12 10° NNW 20:13:42 40° W 20:17:11 10° SSW
Cosmos 1470 4.4 20:15:48 21° NE 20:15:48 21° NE 20:17:34 10° NNE
Meteor 1-15 Rocket 4.1 20:10:26 10° S 20:15:59 75° E 20:21:37 10° NNE
Helios 1A Rocket 2.8 20:14:54 31° SSE 20:16:48 87° W 20:20:54 10° NNW
OBJECT-B 2.3 20:16:04 14° SSW 20:18:28 34° W 20:21:26 10° NNW
Cosmos 1656 Rocket 3.5 20:13:10 10° SSW 20:18:41 67° ESE 20:24:09 10° NE
Okean 2 Rocket 3.1 20:18:26 44° SE 20:19:23 53° E 20:23:42 10° NNE
Cosmos 1900 4.3 20:15:23 10° NW 20:20:17 70° NE 20:21:47 44° ESE
Cosmos 2219 4.5 20:16:45 10° NNW 20:21:34 27° NE 20:23:23 23° ENE
Meteor 2-20 4.5 20:15:58 10° NNW 20:22:08 82° W 20:27:19 15° S
Cosmos 2263 4.0 20:16:52 10° SSW 20:22:26 73° ESE 20:28:03 10° NE
Iridium 4 Rocket 4.0 20:20:13 10° NNE 20:23:35 31° ENE 20:23:35 31° ENE
Cosmos 158 Rocket 4.4 20:19:25 10° NNW 20:24:23 57° WSW 20:27:29 22° S
Cosmos 1726 3.7 20:26:30 22° NE 20:26:30 22° NE 20:28:04 10° NNE
COSMOS 2487 3.6 20:23:06 10° N 20:25:31 31° NNE 20:25:31 31° NNE
H-2A R/B 4.2 20:23:57 10° N 20:27:34 28° WNW 20:31:07 10° WSW
Meteor 2-5 Rocket 3.7 20:22:18 10° NNW 20:27:52 81° W 20:31:27 23° S
Cosmos 1766 3.2 20:25:45 18° SSW 20:28:39 81° WNW 20:32:34 10° N
Meteor 1-22 Rocket 4.2 20:25:16 22° S 20:28:54 61° E 20:34:39 10° NNE
Cosmos 1733 3.8 20:26:13 10° SSW 20:29:57 56° WNW 20:33:45 10° N
Sich 1 Rocket 3.5 20:25:53 12° S 20:30:03 88° ESE 20:34:36 10° NNE
USA 305 2.8 20:27:23 10° WNW 20:31:36 71° SSW 20:32:05 63° SSE
NOSS 3-2 (A) 3.6 20:27:11 10° S 20:32:27 42° ESE 20:38:30 10° NE
SPOT 3 Rocket 3.6 20:32:06 47° ESE 20:33:20 60° ENE 20:38:26 10° N
SPOT 5 4.0 20:34:13 30° ENE 20:34:37 30° ENE 20:39:11 10° N
Cosmos 1821 Rocket 4.4 20:36:27 39° E 20:36:59 39° E 20:42:51 10° NNE
ISS -2.9 20:35:56 10° W 20:38:31 46° WSW 20:38:31 46° WSW
USA 245 4.1 20:40:36 43° NE 20:40:36 43° NE 20:45:04 10° N
Cosmos 1536 Rocket 3.5 20:37:02 10° NNW 20:41:30 82° W 20:42:26 55° S
SL-8 Rocket 4.0 20:36:40 10° S 20:42:58 86° W 20:49:21 10° N
CSL-04 DEB 4.3 20:39:24 10° NNE 20:43:22 80° WNW 20:44:17 51° SSW
Terra 3.2 20:46:31 25° NE 20:46:31 25° NE 20:49:55 10° N
USA 307 2.9 20:42:08 10° WNW 20:46:19 66° SSW 20:46:19 66° SSW
Meteor 2-10 4.0 20:42:26 19° S 20:46:33 82° ESE 20:52:03 10° NNE
Cosmos 1025 Rocket 4.4 20:43:49 10° NNW 20:47:50 37° W 20:50:40 17° SSW
BREEZE-M R/B 3.1 20:46:20 10° W 20:49:18 46° SSW 20:49:18 46° SSW
Cosmos 923 Rocket 4.2 20:44:41 10° NNW 20:49:51 64° WSW 20:51:30 42° S
BREEZE-M DEB (TANK) 3.9 20:46:56 10° W 20:50:51 38° SW 20:50:51 38° SW
Cosmos 2151 Rocket 3.5 20:53:02 75° S 20:53:26 89° E 20:57:58 10° NNE
Spot 2 Rocket 3.8 20:54:11 49° ENE 20:54:11 49° ENE 20:59:02 10° N
Cosmos 2123 Rocket 4.4 20:49:59 10° N 20:56:00 43° ENE 20:56:29 43° E
Cosmos 1727 Rocket 3.9 20:49:39 10° N 20:56:03 88° WSW 20:58:28 41° S
SL-08 R/B 4.4 20:55:55 54° SE 20:56:56 62° E 21:03:00 10° NNE
USA 306 3.4 20:55:22 10° WNW 20:59:00 51° WSW 20:59:00 51° WSW
Cosmos 1680 Rocket 3.7 20:57:59 10° NNW 21:03:13 66° WSW 21:04:16 52° SSW
SeaSat 1 4.3 21:02:03 15° SSW 21:04:56 25° WSW 21:08:59 10° NW
USA 308 3.6 21:01:29 10° WNW 21:04:55 47° WSW 21:04:55 47° WSW
Landsat 7 4.2 21:05:55 49° SW 21:06:51 59° W 21:11:35 10° NNW
SPOT 1/Viking Rocket 3.4 21:08:48 72° S 21:09:20 84° WSW 21:14:32 10° NNW
Cosmos 2297 Rocket 2.4 21:04:38 10° NNW 21:10:13 55° NE 21:10:29 54° ENE
USA 281 3.1 21:04:10 10° NNE 21:10:42 63° ESE 21:11:51 55° SSE
Resurs 01 Rocket 2.2 21:11:15 48° WSW 21:11:42 50° W 21:16:02 10° NNW
ERS-1 Rocket 3.3 21:19:17 53° NE 21:19:17 53° NE 21:23:34 10° N
Cosmos 2112 Rocket 4.4 21:16:31 10° NNW 21:21:39 55° WSW 21:22:13 52° SW
ARIANE 5 R/B 3.5 21:23:19 42° N 21:23:19 42° N 21:26:25 10° N
Cosmos 1943 Rocket 4.2 21:18:14 10° W 21:22:56 27° NW 21:27:43 10° NNE
CARTOSAT-1 4.4 21:27:45 48° NNW 21:27:45 48° NNW 21:30:56 10° NNW
DNEPR-1 R/B 4.4 21:22:24 10° NW 21:25:42 47° N 21:25:42 47° N
Cosmos 2227 Rocket 2.4 21:26:57 10° NNW 21:32:18 58° NE 21:32:18 58° NE
Cosmos 2369 Rocket 3.7 21:29:58 10° WSW 21:35:09 36° NW 21:40:20 10° NNE
Cosmos 990 Rocket 4.2 21:37:46 65° NNW 21:37:46 65° NNW 21:42:28 10° NNE
Cosmos 2082 4.5 21:36:24 10° NNW 21:41:22 41° NE 21:41:22 41° NE
Cosmos 1934 Rocket 4.3 21:43:59 53° NE 21:43:59 53° NE 21:48:56 10° NNE
SJ 16-02 3.7 21:41:18 10° WSW 21:44:49 22° NW 21:48:21 10° N
Cosmos 1867 3.8 21:39:42 10° NW 21:44:31 66° WNW 21:44:31 66° WNW
Cosmos 2263 Rocket 3.6 21:43:45 10° NNW 21:48:26 26° NE 21:48:36 26° NE
Lacrosse 4 Rocket 4.4 21:50:50 10° N 21:51:42 10° N 21:52:33 10° NNE
CENTAUR R/B 2.6 21:56:39 70° NE 21:56:39 70° NE 22:03:15 10° NE
Timation 1 Rocket 4.5 21:54:22 10° NW 21:59:45 71° NW 21:59:45 71° NW
Cosmos 1898 Rocket 4.4 22:04:41 46° N 22:04:41 46° N 22:08:38 10° NNE
Cosmos 2219 3.6 22:00:44 10° NNW 22:05:18 59° NW 22:05:18 59° NW
SPOT 5 3.9 22:13:27 48° WNW 22:13:27 48° WNW 22:17:38 10° NNW
USA 238 DEB 4.0 22:15:00 57° NE 22:15:00 57° NE 22:20:28 10° NE
USA 238 4.0 22:15:14 55° NE 22:15:14 55° NE 22:20:34 10° NE
NOSS 3-2 (A) 3.8 22:17:15 10° WSW 22:23:05 62° NNW 22:29:57 10° NE
Terra 3.4 22:25:25 33° NW 22:25:25 33° NW 22:28:13 10° NNW
ATLAS 5 CENTAUR R/B 4.4 22:12:19 10° W 22:32:22 55° NNW 22:35:31 28° NE
Cosmos 2297 Rocket 3.8 22:49:02 10° NW 22:52:17 28° WNW 22:52:17 28° WNW
USA 281 4.3 22:48:57 10° NNE 22:54:59 40° NW 22:58:39 22° W
Cosmos 1980 Rocket 4.5 23:14:17 15° NE 23:14:17 15° NE 23:15:18 10° NE
Cosmos 2227 Rocket 4.0 23:11:26 10° NW 23:14:06 24° WNW 23:14:06 24° WNW
Cosmos 2263 Rocket 3.8 23:27:29 10° NNW 23:30:16 30° NNW 23:30:16 30° NNW
NOSS 3-2 (C) 4.4 23:34:11 47° N 23:34:11 47° N 23:40:22 10° NE
Cosmos 1697 Rocket 4.5 23:42:02 26° NNE 23:42:02 26° NNE 23:44:27 10° NNE
CENTAUR R/B 3.7 23:43:40 25° WNW 23:47:18 44° NNW 23:54:47 10° NE
